Location: Armstrong Village
(14.3346°N, 120.9854°E)
Time: 12:54:16
(UTC+00:00)

Cosmos 1821 Rocket - Pass Details

Date: 14 April 2026
Orbit: 945 x 1003 km, 82.9° (Epoch: 12 May)

Event Time Altitude Azimuth Distance (km) Brightness Sun altitude
Exits shadow 12:50:55 22° 353° (N) 1,988 5.8 -38.2°
Drops below altitude 10° 12:52:56 10° 357° (N) 2,717 6.6 -38.6°
Sets 12:55:29 0° 0° (N) 3,673 7.3 -39.2°
